Lapse_Rate
5.2 5.2 5.1 5.0 5.0 5.0 4.8 4.6 4.6 4.6 4.4 4.6 4.2 4.3 4.5 4.1 3.8 3.8 4.1 4.4 4.2 4.6 4.6 4.3 4.4 4.6 4.6 4.7 4.5 4.4 4.5 4.7 4.6 4.7 4.7 4.5 4.4 4.5 4.5 4.7 4.7 4.6 4.6 4.7 4.3 4.1 4.5 5.1 5.0 4.8 5.0 4.9 4.7 4.6
5.5 5.2 4.9 5.1 4.9 4.7 4.9 4.7 4.8 4.9 4.7 4.9 4.8 4.5 4.6 4.4 4.2 4.0 3.8 4.0 4.3 4.4 4.8 4.7 4.6 4.6 4.7 4.5 4.4 4.4 4.3 4.4 4.5 4.6 4.6 4.6 4.7 4.6 4.8 4.5 5.0 4.8 5.1 4.9 4.9 5.5 5.2 5.0 4.9 5.0 5.2 5.2 5.0 4.9
5.7 5.6 5.4 5.2 4.9 5.0 4.8 4.6 4.7 4.8 4.9 4.7 4.9 5.0 4.6 4.8 4.6 4.2 4.1 4.0 3.9 4.3 4.5 5.0 5.2 4.4 4.5 4.1 4.3 4.3 4.4 4.0 4.3 4.6 4.4 4.2 4.1 4.4 4.5 4.8 5.0 5.1 5.0 4.9 5.0 5.6 5.1 5.0 5.1 4.9 5.0 5.3 5.4 5.4
4.8 5.3 5.3 4.7 4.7 5.0 5.0 4.9 4.7 4.8 4.9 4.9 5.0 5.2 5.2 5.0 4.8 4.4 4.3 4.0 4.3 4.0 4.3 4.8 4.7 4.6 4.8 4.8 4.5 4.3 4.3 4.1 4.1 4.0 4.0 4.1 4.2 4.2 4.2 4.5 4.6 5.2 5.2 5.3 5.3 6.2 5.2 5.4 5.3 5.2 5.2 5.2 5.4 5.6
5.2 4.9 5.0 5.0 4.9 4.9 5.2 5.0 4.9 4.7 4.9 4.9 5.0 5.3 5.3 5.0 4.6 4.3 4.1 4.1 4.2 4.1 4.3 5.0 4.9 4.6 4.9 4.9 5.2 4.8 4.4 4.2 4.4 3.9 3.7 3.7 3.5 3.8 3.8 3.9 4.5 6.5 6.5 5.8 5.7 6.2 5.3 5.8 5.5 5.6 5.6 5.5 5.5 5.6
4.5 4.9 4.7 5.2 5.1 4.6 5.1 4.8 4.7 4.7 4.6 4.8 4.9 5.0 5.0 4.8 4.1 3.9 4.0 4.1 4.1 3.9 3.5 3.4 4.3 5.1 5.0 5.1 4.9 5.2 4.5 4.2 4.6 4.2 4.0 3.8 4.1 3.8 3.1 3.7 5.8 7.3 7.1 6.6 6.2 5.7 5.3 5.6 6.0 5.9 5.8 5.9 5.9 5.9
3.5 3.6 3.9 4.5 4.7 4.3 4.5 4.4 4.6 4.6 4.5 4.7 4.7 4.7 4.8 5.0 4.4 4.2 4.2 4.0 4.3 4.1 3.8 2.9 3.3 4.3 4.6 5.4 5.6 4.9 4.3 3.9 4.5 3.9 3.4 3.8 4.2 3.7 3.2 4.6 7.1 6.6 6.7 6.5 6.2 5.7 5.8 5.9 5.9 5.7 5.9 5.7 5.9 6.0
3.3 3.7 3.8 3.7 4.0 3.8 4.3 4.3 3.9 4.4 4.3 4.5 4.8 4.8 4.9 4.7 3.6 3.6 3.4 3.5 3.4 3.6 3.7 2.9 2.6 3.0 4.7 5.4 5.3 5.1 4.3 3.8 4.2 3.9 3.2 3.7 4.0 3.7 3.0 7.2 7.0 7.1 6.7 6.5 6.6 5.7 5.4 5.6 6.0 6.0 5.8 6.0 5.7 5.8
3.8 3.7 4.0 4.2 4.3 4.1 3.5 3.5 3.6 4.0 4.4 4.8 5.2 4.8 4.1 3.7 3.9 3.5 3.4 3.6 3.5 3.5 3.0 3.0 2.7 2.9 3.8 4.9 4.7 4.5 4.4 4.1 3.6 3.8 4.1 3.4 3.6 3.4 6.9 6.6 6.6 6.6 6.4 5.8 5.6 5.3 5.5 5.8 6.1 5.9 5.8 6.0 5.8 5.6
4.2 4.3 4.4 4.3 4.4 4.3 4.1 3.8 3.7 4.1 4.5 5.1 5.4 4.9 4.2 4.0 3.9 3.6 3.3 3.1 3.0 3.1 3.1 3.0 2.3 3.0 3.7 4.4 4.3 3.8 3.5 4.1 3.7 3.8 3.7 3.7 4.6 5.2 6.1 6.1 6.6 6.4 6.4 6.3 6.4 6.3 5.8 5.6 5.9 5.9 5.7 5.5 5.7 5.7
4.7 4.7 4.3 4.3 4.7 4.6 4.4 4.5 4.0 4.0 4.8 4.6 5.3 5.4 5.1 4.4 4.1 3.7 3.3 3.3 2.7 3.1 3.0 2.6 3.1 2.8 2.9 3.6 3.4 3.4 3.2 3.5 3.8 4.1 3.3 3.6 5.0 6.6 6.2 6.0 6.1 6.4 6.5 6.6 6.1 6.0 5.9 5.7 5.5 5.5 5.8 6.0 6.0 5.9
4.3 4.4 4.5 4.6 4.7 4.7 4.6 4.6 4.7 4.9 5.4 5.7 5.9 6.0 5.5 4.8 4.3 3.9 3.5 3.2 3.3 2.7 3.3 3.8 3.3 3.5 2.9 3.2 3.3 3.3 3.3 3.4 3.7 3.4 2.9 3.8 5.5 6.2 6.2 5.6 5.8 6.3 6.3 6.3 6.0 5.9 5.9 5.7 5.5 5.5 5.9 6.4 6.3 6.4
4.7 4.7 4.4 4.4 4.4 4.6 4.8 4.6 4.5 4.9 5.4 5.3 5.9 6.3 5.2 4.4 4.3 4.3 3.8 3.6 3.4 3.6 3.8 4.2 3.5 4.2 3.6 3.3 3.2 3.4 3.8 3.3 3.2 3.3 3.5 5.2 6.2 6.1 5.7 5.7 5.7 5.7 5.8 5.8 5.9 6.1 6.1 5.9 5.7 5.6 5.8 6.3 6.2 6.1
5.3 5.2 5.0 4.7 4.7 4.8 5.0 5.1 4.9 5.6 5.5 6.3 6.6 6.3 5.3 4.8 4.6 5.3 5.9 5.6 5.5 5.2 4.5 4.3 4.8 4.5 3.7 3.7 3.6 3.4 3.7 3.4 3.4 3.2 4.7 7.2 6.6 6.0 5.9 5.8 5.9 6.0 6.0 5.5 5.4 5.6 5.6 5.9 6.0 6.0 5.8 6.0 6.3 6.0
5.7 5.6 5.6 5.4 5.4 5.2 5.2 5.4 5.9 6.0 6.5 6.6 7.1 6.4 6.1 5.8 6.0 6.4 6.3 5.6 5.4 5.2 4.7 4.6 4.6 4.3 4.2 3.8 3.5 3.5 3.2 3.2 4.1 5.1 7.2 6.9 6.4 6.3 6.0 5.8 6.0 6.2 5.7 5.0 5.1 5.3 5.6 5.8 5.8 5.8 5.8 5.9 6.0 6.0
6.0 5.8 5.7 5.9 5.9 6.0 5.9 6.0 6.4 6.2 6.8 6.9 6.9 6.6 6.5 6.8 6.7 6.2 6.6 5.9 5.7 5.4 4.9 4.7 4.3 4.3 3.7 4.0 3.7 3.7 3.8 4.6 5.6 6.3 7.0 6.6 6.6 6.2 5.8 5.8 5.9 5.8 5.4 5.2 5.2 5.2 5.4 5.7 5.8 5.9 5.7 5.7 5.9 5.9
5.8 5.6 5.9 6.0 6.2 6.3 6.0 6.2 6.9 7.3 6.5 7.0 7.2 7.3 7.1 7.5 7.8 7.3 7.6 7.4 6.8 5.3 5.1 5.0 4.6 4.8 4.5 4.0 4.2 4.4 4.7 6.2 6.6 6.9 6.6 6.3 6.2 5.9 5.5 5.7 5.7 5.6 5.5 5.2 5.2 5.2 5.3 5.5 5.9 5.9 5.8 5.6 5.6 5.4
5.7 5.8 5.9 6.3 6.4 6.2 6.1 6.7 7.0 6.9 7.1 7.3 6.8 7.0 7.6 7.1 7.3 7.3 7.1 6.8 6.3 5.8 5.4 4.9 4.9 4.7 4.4 4.5 5.1 5.4 5.9 6.8 6.7 6.5 6.3 6.1 5.6 5.3 5.5 5.7 5.9 5.9 5.8 5.7 5.4 5.5 5.3 5.1 5.2 5.5 5.8 5.7 5.5 5.5
5.8 5.8 6.2 6.4 6.5 6.2 6.6 6.8 7.2 7.3 7.2 7.2 6.9 6.8 7.1 7.3 7.2 6.9 7.2 7.0 6.4 6.1 5.8 5.0 4.9 4.9 5.1 5.2 5.4 5.5 6.4 6.7 6.1 5.9 5.7 5.5 5.3 5.2 5.1 5.3 5.5 5.6 5.4 5.3 4.9 4.9 4.8 4.5 4.6 5.1 5.6 5.7 5.6 5.3
5.8 6.0 6.4 6.5 6.5 6.8 6.6 6.7 7.0 7.1 7.2 6.9 6.8 6.7 6.7 7.3 7.1 6.8 6.6 6.5 5.7 5.3 4.7 4.8 5.5 5.7 5.8 5.6 5.9 6.4 6.3 6.0 5.6 5.6 5.6 5.6 5.3 4.9 4.9 5.0 5.0 4.8 4.6 4.6 4.5 4.3 4.3 4.3 4.3 4.7 5.2 5.3 5.2 5.0
6.0 6.2 6.3 6.5 6.3 5.8 6.2 6.6 6.8 6.7 7.0 7.0 6.8 6.6 6.6 6.4 6.4 6.1 6.4 6.1 5.5 5.4 5.7 5.9 6.4 5.8 5.5 5.8 6.0 6.1 5.9 5.7 5.4 5.2 5.1 4.8 4.5 4.5 4.5 4.5 4.5 4.2 4.0 4.0 4.1 4.0 4.1 4.3 4.5 4.5 4.6 4.8 4.8 4.8
6.1 6.0 5.6 5.7 6.0 6.0 6.2 6.4 6.6 6.5 6.5 6.7 6.7 6.6 5.9 5.9 6.2 5.8 5.8 5.5 5.5 6.0 6.4 6.1 5.9 5.8 5.7 5.8 6.0 5.7 5.6 5.0 4.9 4.9 4.7 4.6 4.5 4.4 4.3 4.2 4.1 4.1 4.0 3.9 3.9 4.0 4.2 4.1 4.1 4.1 4.5 4.4 4.5 4.6
5.6 5.5 6.1 6.5 6.2 6.4 6.4 6.3 6.4 6.2 6.1 6.0 6.0 6.2 5.9 5.8 5.8 5.8 5.5 5.5 5.7 5.6 5.6 5.6 5.7 5.8 5.6 5.8 5.4 4.9 4.8 4.8 4.9 5.1 5.0 4.7 4.6 4.4 4.3 4.4 4.3 4.1 4.0 4.1 3.9 3.9 4.1 4.3 4.3 4.4 5.1 5.5 5.0 5.0
5.6 5.8 5.8 6.1 6.5 6.5 6.1 6.0 5.7 5.5 5.7 5.4 5.4 5.5 5.4 5.3 5.4 5.3 5.3 5.4 5.6 6.0 6.0 6.3 6.2 5.7 5.3 5.0 4.9 5.1 5.5 5.3 5.3 5.2 5.1 4.7 4.4 4.5 4.6 4.5 4.5 4.6 5.0 5.3 5.9 6.3 6.7 6.6 6.8 6.7 6.4 5.8 5.8 5.9
6.0 6.0 5.7 6.4 6.2 6.0 5.6 5.6 5.5 5.6 5.3 4.8 4.8 5.0 4.9 5.1 5.3 5.0 5.1 5.7 6.2 6.5 6.8 6.3 5.2 4.8 4.8 5.3 5.5 5.5 5.4 5.4 5.2 4.9 4.8 4.9 5.1 4.9 5.4 6.0 6.4 7.1 7.4 7.6 7.5 7.5 7.4 7.2 7.1 6.6 6.1 5.8 5.5 5.1
5.9 6.1 5.9 6.0 5.7 5.5 5.5 5.3 5.3 5.3 5.5 4.9 4.9 5.0 4.9 5.0 5.3 4.9 4.9 6.1 6.6 6.7 6.2 5.5 5.3 5.2 5.2 5.3 5.4 5.4 5.4 5.1 4.8 4.8 5.7 5.9 6.1 6.5 6.5 6.6 7.1 7.4 7.4 7.4 7.4 7.3 6.9 6.7 6.2 5.7 5.5 5.1 4.5 4.7
6.5 6.1 5.7 5.8 5.5 5.5 5.3 5.3 5.3 5.3 5.3 5.3 5.2 5.3 5.3 5.2 5.3 5.3 5.9 6.3 6.3 6.0 5.5 5.7 5.7 5.6 5.5 5.4 5.3 5.3 5.3 5.3 5.3 5.7 6.3 6.8 6.8 6.5 6.5 6.6 7.1 7.3 7.3 7.2 6.9 6.6 6.5 6.1 5.6 5.3 5.1 4.7 4.4 4.4
5.9 5.8 6.0 5.8 5.5 5.5 5.5 5.5 5.4 5.4 5.6 5.6 5.8 5.4 5.5 5.5 5.6 6.3 6.5 6.1 6.1 5.6 5.3 5.2 5.2 5.3 5.4 5.5 5.4 5.6 5.6 5.7 6.1 6.7 7.0 7.0 6.7 6.6 6.4 6.5 6.8 6.9 7.0 6.9 6.5 6.1 5.7 5.4 5.2 4.9 4.4 4.2 4.7 5.0
5.8 6.1 5.9 5.6 5.5 5.6 5.7 5.8 5.8 5.9 6.1 6.1 6.2 6.1 6.0 6.3 6.2 5.7 5.4 5.3 5.5 5.3 5.2 5.3 5.3 5.4 5.5 5.7 5.9 5.9 6.0 6.8 7.2 7.3 7.2 6.8 6.5 6.3 6.2 6.2 6.4 6.4 6.5 6.2 6.0 5.4 5.2 4.8 4.4 4.6 5.1 5.3 5.4 5.1
5.9 6.0 5.9 5.7 5.6 5.5 5.7 6.0 6.0 6.1 6.0 6.0 5.6 5.4 5.5 6.0 5.9 5.7 5.5 5.2 5.3 5.6 5.8 5.7 5.8 5.8 5.9 6.1 6.2 6.6 6.8 6.9 7.2 7.2 7.1 6.8 6.4 6.1 5.9 5.8 5.7 5.8 6.0 5.8 5.6 5.3 4.9 4.7 5.0 5.3 5.4 5.3 4.9 4.7
6.0 6.2 6.0 5.7 5.5 6.1 6.2 6.0 5.9 5.9 5.8 5.5 5.3 5.3 5.5 5.7 5.6 5.5 5.5 5.3 5.3 5.7 6.0 6.0 5.9 5.9 6.2 6.5 7.1 7.2 7.1 7.0 6.9 6.6 6.3 6.1 5.9 5.7 5.7 5.6 5.5 5.8 5.8 5.5 5.1 4.9 5.2 5.5 5.4 5.2 4.9 4.5 4.7 4.6
5.7 5.8 6.0 6.1 6.1 6.2 6.1 6.0 5.9 5.7 5.6 5.4 5.4 5.5 5.4 5.3 5.4 5.5 5.6 5.6 5.7 5.8 6.0 6.0 6.1 6.4 6.6 7.1 7.3 7.3 6.8 6.6 6.3 5.8 5.7 5.5 5.3 5.4 5.4 5.5 5.5 5.2 5.3 5.3 4.8 5.0 5.0 4.9 4.9 4.5 4.5 4.6 4.6 4.7
6.1 6.2 6.3 6.2 6.0 6.0 5.8 5.7 5.7 5.7 5.6 5.5 5.5 5.5 5.5 5.4 5.4 6.0 6.2 6.0 5.9 6.1 6.1 6.3 6.4 6.7 7.0 7.3 7.2 6.7 6.0 5.6 5.5 5.5 5.2 5.1 5.3 5.4 5.5 5.2 5.0 5.2 5.3 4.9 4.7 4.9 4.9 4.7 4.1 4.4 4.6 4.8 4.7 4.4
Wind_Speed
26 26 27 27 27 27 25 24 24 23 23 22 23 21 19 15 12 5 2 6 4 3 4 6 5 5 2 3 4 3 3 1 2 2 3 3 3 3 1 4 3 4 4 3 2 1 4 7 3 6 5 2 4 5
27 28 28 27 28 28 26 25 26 24 25 25 26 25 23 20 17 10 2 3 5 2 4 4 5 5 6 7 5 3 2 3 5 3 1 2 3 1 4 3 1 3 6 3 8 5 3 8 7 6 4 4 5 5
30 30 28 27 26 27 28 27 28 27 26 27 28 27 26 24 22 16 3 3 2 1 4 1 7 5 3 6 4 4 2 1 1 2 3 1 4 4 4 6 3 5 4 3 2 3 9 12 10 7 8 9 6 6
30 30 30 28 27 27 27 29 28 29 28 29 30 30 28 27 25 20 3 3 2 1 3 4 2 5 1 6 4 4 6 4 4 2 2 2 3 4 3 2 4 4 6 5 6 11 9 13 12 12 11 10 8 7
26 29 29 29 27 27 27 28 29 29 30 30 32 31 30 29 25 18 4 5 6 3 2 4 2 3 0 6 8 7 6 5 2 1 1 3 2 1 1 1 4 6 9 7 9 13 6 10 5 6 9 11 14 11
23 23 26 31 28 28 27 27 28 29 29 31 31 32 32 30 26 4 3 7 15 3 2 3 1 1 2 4 6 6 5 3 3 3 4 3 3 3 3 4 9 15 14 16 16 5 10 7 5 5 7 10 10 12
22 23 23 21 26 25 26 26 27 28 29 30 31 32 32 34 17 4 5 3 21 8 2 3 3 1 3 3 2 2 2 1 3 2 3 3 2 4 2 12 8 10 15 16 17 2 9 8 9 9 9 6 7 7
22 23 23 24 24 25 26 26 25 25 28 30 30 30 34 36 17 3 2 11 21 4 2 3 3 1 5 2 2 2 3 1 2 3 0 3 1 3 6 9 13 23 24 17 19 15 20 2 5 7 4 5 7 8
23 24 23 22 24 25 24 23 22 24 26 27 26 29 11 5 4 3 12 15 4 3 4 4 5 4 4 2 2 1 2 3 2 3 3 4 4 7 11 9 15 19 10 11 11 12 13 14 15 8 9 8 9 11
23 25 23 23 24 25 26 27 26 23 23 22 8 3 4 4 27 22 3 1 1 3 3 4 3 4 4 3 2 2 1 2 3 5 3 4 6 10 13 17 22 17 10 7 6 7 6 7 14 15 16 15 14 12
24 23 24 26 25 24 25 26 27 22 18 2 3 3 2 33 3 2 4 5 5 5 5 5 9 6 4 4 3 3 3 1 1 4 4 3 5 7 18 19 16 15 13 13 15 16 9 9 9 11 12 13 12 11
24 23 23 24 26 25 24 24 25 13 3 9 8 5 3 4 3 6 7 5 6 7 6 8 7 4 3 3 3 4 3 2 6 2 2 4 5 10 7 6 8 8 9 12 15 18 13 10 10 9 10 11 13 14
25 23 23 24 25 26 25 24 26 24 20 3 3 6 5 6 7 10 10 7 7 6 6 5 8 5 3 3 2 4 6 7 2 3 5 6 6 7 3 5 8 7 7 8 7 7 6 7 8 9 8 7 10 10
23 24 24 24 25 26 26 25 22 15 5 5 7 9 7 7 9 7 5 5 4 7 12 11 5 4 2 5 4 5 5 4 3 5 8 4 8 8 5 4 4 5 6 8 8 7 7 7 7 7 7 6 9 10
24 24 23 23 25 25 25 25 25 10 5 6 5 8 7 4 3 4 5 6 4 12 14 7 3 3 3 4 4 3 5 7 9 7 4 4 4 3 2 2 5 5 4 5 4 5 5 5 5 5 5 7 7 8
24 22 16 23 24 22 23 20 13 6 4 5 6 3 4 9 4 4 8 5 10 14 10 4 4 5 5 5 6 10 6 10 4 4 3 4 4 2 2 3 4 3 3 4 4 3 4 5 5 5 5 5 6 9
23 11 14 18 16 16 17 9 5 6 6 5 3 5 10 12 16 8 9 11 14 16 8 5 10 9 5 4 6 7 7 4 4 3 4 6 6 4 5 4 3 4 5 5 3 4 3 3 5 6 7 6 6 6
13 10 17 19 16 14 5 4 5 6 8 4 5 9 13 3 9 8 7 13 12 10 8 6 5 7 7 7 5 4 4 3 2 3 5 6 5 4 5 6 5 6 5 5 4 3 4 4 6 4 6 6 7 7
13 11 17 18 13 4 3 4 3 5 5 4 2 6 8 3 5 11 8 16 5 6 8 4 5 6 9 4 4 5 3 4 5 5 5 6 7 7 6 5 3 3 4 3 3 3 4 6 4 5 5 7 7 5
23 23 23 22 13 3 4 4 3 3 6 5 4 6 3 3 8 10 10 15 9 7 3 6 10 4 5 5 4 3 4 5 4 4 3 4 5 6 6 5 4 4 3 2 2 3 2 2 2 5 6 7 8 7
18 12 17 13 4 7 5 4 4 3 4 4 5 7 2 7 9 9 8 12 7 6 8 7 8 4 5 2 4 4 5 7 7 5 5 2 3 4 2 2 3 3 4 4 4 4 8 6 4 3 7 5 5 6
5 14 3 5 5 7 5 6 3 3 2 4 7 3 4 6 7 7 6 8 7 13 10 6 4 3 5 8 5 5 5 6 3 3 4 6 3 2 3 4 4 5 5 5 6 7 7 4 5 5 5 6 9 7
14 5 3 4 6 6 4 1 3 4 5 8 4 4 3 3 5 7 5 5 6 3 10 4 7 4 6 3 4 4 7 7 5 5 5 5 5 3 3 4 5 6 6 6 4 4 5 10 10 8 7 8 9 8
8 4 5 6 6 5 3 3 2 3 3 4 4 4 4 3 7 3 5 3 3 3 7 11 8 6 2 2 3 5 8 6 4 2 4 5 5 7 7 6 6 6 6 4 6 5 6 7 12 9 9 10 10 10
5 7 6 7 4 4 4 3 2 2 3 3 4 3 4 3 4 4 4 3 3 6 8 8 8 9 11 11 8 8 7 7 7 8 6 8 5 2 2 4 6 6 6 6 6 8 8 8 8 10 11 11 13 12
10 9 8 7 4 5 6 6 6 5 4 3 2 3 2 3 2 6 3 4 5 7 11 11 12 11 10 11 12 9 8 5 5 8 5 8 9 9 7 8 6 5 7 7 8 10 10 10 11 13 11 15 21 14
7 5 3 1 3 4 3 2 2 4 4 5 4 4 3 4 6 4 3 4 4 3 1 1 6 9 11 8 4 3 4 6 8 5 4 7 7 8 8 9 11 6 9 10 11 12 14 13 13 12 12 10 10 11
3 5 7 6 2 1 5 4 4 5 4 4 6 6 10 8 6 3 2 2 3 2 3 2 1 1 1 2 1 2 3 4 5 6 5 4 2 2 4 3 4 18 10 10 11 11 13 14 14 14 14 12 9 8
2 2 4 4 2 1 2 4 6 2 3 7 5 4 4 3 1 2 1 1 2 3 2 1 2 3 3 2 3 3 5 7 9 9 11 5 3 2 4 6 8 7 8 9 19 17 16 14 14 13 13 11 9 8
3 1 4 3 3 3 1 1 1 0 2 2 2 1 2 2 1 1 2 2 1 3 3 3 1 3 3 3 3 2 2 5 7 6 8 8 7 6 7 9 9 9 10 11 12 14 24 17 18 12 11 9 8 9
2 3 4 3 2 2 1 2 1 2 2 2 2 1 2 2 2 2 3 3 3 2 2 2 2 3 3 4 3 4 3 3 3 5 5 6 9 8 8 9 9 10 11 14 14 13 13 11 11 13 13 13 14 12
2 2 3 4 1 1 1 1 1 2 3 2 2 2 3 2 2 2 3 4 3 2 6 4 3 3 4 3 3 2 2 4 6 7 13 8 8 10 10 10 10 10 12 13 12 13 15 16 13 13 13 14 13 12
3 1 1 3 2 1 2 3 3 2 3 2 2 1 1 2 5 3 1 1 3 3 4 3 4 4 5 5 5 3 5 3 10 16 19 20 22 18 11 9 10 12 14 13 13 14 16 18 14 15 14 13 12 11
Wind_Direction
266 267 266 267 264 257 241 229 221 224 224 221 207 205 202 206 200 152 225 175 135 191 266 209 196 151 132 160 173 175 74 293 89 139 152 211 188 225 272 237 211 212 156 202 95 15 305 171 98 176 217 202 189 198
260 262 263 264 264 260 248 234 227 221 219 219 210 203 197 197 194 172 244 184 155 170 238 219 242 226 183 186 144 193 243 178 190 112 181 113 220 97 169 265 151 269 195 202 189 223 244 203 214 213 173 208 204 192
258 257 254 258 259 259 257 244 230 225 217 214 209 206 198 195 194 179 163 152 94 281 286 161 219 234 163 189 183 144 267 212 228 175 159 159 227 140 183 234 199 241 175 220 358 255 230 230 244 238 212 214 209 215
255 252 251 252 254 254 256 253 239 228 222 215 209 204 201 194 193 179 162 185 134 126 271 287 7 264 154 158 155 149 137 90 90 44 135 173 208 173 228 264 187 201 141 201 259 279 270 252 226 235 234 227 216 212
273 255 247 248 250 250 249 250 247 235 226 218 211 203 197 191 186 184 174 202 210 162 247 278 281 259 146 171 153 142 132 127 139 116 152 232 232 160 207 50 233 189 192 192 244 239 210 252 207 202 213 216 220 202
282 275 271 254 248 252 252 245 246 242 231 221 213 201 191 182 168 144 221 211 205 152 306 291 269 154 55 113 123 128 138 124 142 170 215 243 247 162 212 235 241 213 214 221 243 203 209 232 222 193 218 228 215 201
281 284 282 284 263 249 255 251 243 241 236 225 212 201 186 170 162 170 191 162 168 144 215 271 266 22 131 115 93 85 26 143 146 210 221 222 242 177 233 260 247 235 231 234 239 141 272 218 243 209 212 218 215 209
278 280 281 284 279 272 263 251 247 245 239 229 214 197 175 168 170 187 168 143 150 145 192 238 232 208 183 167 141 157 134 134 225 231 137 202 188 204 256 251 238 244 247 238 239 211 236 303 221 213 177 153 188 202
272 272 276 279 281 280 278 270 253 247 245 233 212 174 148 173 168 158 131 151 74 175 199 211 185 215 151 125 102 132 147 186 203 229 222 159 203 222 237 217 242 240 217 225 241 219 230 233 251 223 196 195 207 212
272 273 271 276 280 282 278 274 268 255 242 233 134 112 168 190 131 114 57 47 161 223 229 220 135 171 146 145 169 112 213 222 236 229 134 218 255 254 246 235 247 252 239 200 216 242 227 239 232 231 211 215 212 207
265 270 273 274 273 276 274 270 267 260 241 98 121 149 126 146 107 140 163 187 190 222 208 182 182 140 212 135 155 200 200 158 285 245 172 251 261 239 236 242 254 264 242 215 229 243 219 206 218 224 225 214 204 195
259 262 271 275 274 273 276 270 261 253 230 158 127 123 99 161 166 160 177 184 208 227 190 160 165 123 152 120 134 175 193 145 250 119 204 259 253 248 257 260 267 259 231 225 218 233 231 223 231 222 221 212 206 198
257 259 266 275 275 271 267 271 258 252 125 104 126 152 178 180 172 180 190 201 186 165 175 149 149 132 121 127 150 166 190 219 102 205 234 233 256 269 209 252 268 253 237 243 242 232 237 236 224 216 222 201 195 186
253 257 263 269 272 269 262 262 260 238 168 197 169 187 206 181 189 191 193 157 143 139 156 153 130 131 137 162 158 186 197 127 212 239 231 229 234 258 289 264 247 263 243 259 266 252 241 229 224 209 198 178 175 180
256 256 263 269 268 269 259 257 251 230 172 215 199 209 187 153 196 181 155 128 148 149 148 130 83 109 154 179 182 129 175 234 207 224 225 232 211 216 265 290 261 270 281 262 264 263 249 228 195 200 177 166 173 163
258 259 261 264 267 255 258 261 256 215 204 218 181 199 146 152 181 176 175 144 156 156 142 112 146 173 186 177 169 205 187 222 226 214 216 168 179 189 257 254 266 276 262 251 243 237 236 208 195 189 156 163 162 163
257 250 259 267 265 253 265 286 241 198 211 207 214 147 201 204 193 186 174 161 157 156 165 145 174 192 119 188 213 196 211 191 208 219 184 194 176 191 232 281 299 281 268 250 224 210 222 184 143 136 162 172 155 154
253 254 259 269 271 273 254 205 212 209 217 192 197 187 189 193 171 166 170 161 166 186 154 173 125 193 201 200 220 204 211 232 202 191 202 202 189 194 201 223 236 240 256 253 224 201 151 154 178 197 151 146 128 132
252 246 255 262 259 234 222 238 208 218 186 170 225 201 176 162 181 172 165 176 167 156 120 133 185 207 210 189 171 197 193 180 193 205 214 213 190 190 213 206 197 216 225 202 194 211 216 202 196 164 157 158 153 141
257 261 260 268 257 202 235 233 232 199 188 187 143 176 171 186 164 163 170 178 165 160 199 210 217 188 202 187 205 175 184 169 139 168 207 206 188 174 193 182 192 188 200 208 234 199 129 180 209 159 158 160 147 151
266 257 262 253 190 192 229 222 252 218 144 183 143 140 139 148 167 177 175 174 186 206 217 213 213 182 186 163 201 161 167 163 186 174 182 222 176 153 183 227 135 157 202 201 206 218 205 209 171 175 170 150 135 135
242 261 214 171 216 210 227 195 212 177 141 149 137 119 137 167 172 183 156 193 215 216 216 214 155 159 181 203 200 182 165 176 138 140 111 122 130 169 218 201 152 207 205 211 204 209 210 168 157 151 147 141 134 130
266 171 202 170 229 221 222 146 163 186 140 159 130 115 167 155 159 126 193 219 235 205 210 193 205 178 208 201 144 158 180 183 199 199 196 195 210 186 167 178 185 192 213 225 185 180 175 170 172 150 141 140 133 132
147 190 209 213 189 207 168 184 189 147 119 166 134 130 166 141 150 202 230 222 224 178 190 206 196 212 123 66 187 204 209 195 202 201 179 169 202 223 210 215 194 206 203 160 175 176 167 162 158 147 146 142 135 132
200 208 201 200 189 153 148 150 189 119 121 133 116 145 169 157 176 213 225 254 215 199 205 201 207 213 228 239 235 234 190 178 202 216 210 203 218 77 176 203 208 204 162 164 175 172 172 154 150 147 146 142 138 137
211 197 193 173 163 163 177 148 176 162 126 118 124 139 139 129 158 238 222 208 199 203 207 206 209 214 221 222 233 227 217 182 179 216 213 190 198 209 205 199 201 211 193 187 166 162 151 148 146 144 143 147 146 133
189 197 170 160 135 137 123 96 98 119 132 150 159 152 139 174 226 245 242 212 201 208 189 174 192 204 221 222 225 188 152 165 187 208 180 185 198 201 190 192 205 205 170 167 157 157 153 147 148 146 141 138 141 143
181 189 160 175 153 189 143 128 155 175 155 158 137 174 176 195 217 231 218 8 77 81 48 319 278 153 166 198 186 100 92 113 100 93 82 61 45 155 141 119 127 156 153 156 149 151 151 149 151 149 143 138 132 133
175 174 126 111 111 149 199 167 184 175 130 167 151 158 220 223 192 155 179 144 88 96 132 167 177 189 211 203 191 168 148 152 164 177 177 167 158 189 145 138 145 137 138 140 147 145 147 146 145 138 128 126 123 122
158 159 100 93 124 195 256 301 269 292 35 60 65 39 309 298 234 129 108 102 166 202 194 188 200 170 178 164 130 113 171 188 200 191 183 188 184 145 146 139 138 132 127 124 123 130 125 115 111 106 109 118 123 124
82 77 73 61 109 247 259 312 323 53 39 49 325 124 196 300 303 203 182 181 168 183 139 118 238 216 157 167 169 171 187 198 221 151 128 131 142 142 142 140 133 133 134 132 130 133 131 120 121 125 129 130 140 135
62 99 143 122 151 223 323 102 72 66 355 43 341 349 351 20 300 241 192 145 140 163 208 179 162 228 221 208 169 154 160 149 165 149 143 141 139 137 133 129 128 130 131 129 128 131 128 130 134 135 134 134 136 140
94 126 106 103 88 340 297 90 40 58 33 31 340 316 255 195 237 258 289 173 170 174 180 196 219 221 192 170 149 154 144 130 158 155 148 145 142 137 129 128 125 127 125 123 125 127 127 128 129 132 132 133 135 135